CW9346 Weather Reports


time (UTC)temp
F
wind
direction
speed
knots
gust
knots
rain 1hr
in
rain 24hr
in
rain mn
in
humidity
%
barometer
mb
20260510021526 62 243 0.0 0.0 0.00 0.00 0.00 74 1006.8
20260510020015 63 243 0.0 0.0 0.00 0.00 0.00 73 1006.7
20260510014515 63 243 0.0 0.0 0.00 0.00 0.00 72 1006.7
20260510013112 64 243 0.0 0.0 0.00 0.00 0.00 71 1006.4
20260510013009 64 243 0.0 0.0 0.00 0.00 0.00 71 1006.4
20260510011553 65 243 0.0 0.0 0.00 0.00 0.00 70 1006.0
20260510010045 65 243 0.0 0.0 0.00 0.00 0.00 68 1005.8
20260510004534 66 243 0.0 0.0 0.00 0.00 0.00 67 1005.7
20260510003032 67 243 0.0 0.0 0.00 0.00 0.00 65 1005.7
20260510001525 68 243 0.0 0.0 0.00 0.00 0.00 63 1005.6
20260510000014 69 243 0.0 0.0 0.00 0.00 0.00 61 1005.5
20260509234504 70 243 0.0 0.0 0.00 0.00 0.00 60 1005.3
20260509233040 71 243 0.0 0.0 0.00 0.00 0.00 60 1005.2
20260509231538 72 243 0.0 0.0 0.00 0.00 0.00 58 1005.0
20260509230030 72 243 0.0 0.0 0.00 0.00 0.00 56 1005.1
20260509224526 73 243 0.0 0.0 0.00 0.00 0.00 56 1005.1
20260509223018 73 243 0.0 0.0 0.00 0.00 0.00 55 1005.0
20260509221512 73 243 0.0 0.0 0.00 0.00 0.00 53 1005.1
20260509220040 73 241 0.0 0.9 0.00 0.00 0.00 55 1005.1
20260509214537 73 164 0.0 0.0 0.00 0.00 0.00 55 1005.0
20260509213028 73 164 0.0 0.0 0.00 0.00 0.00 53 1005.0
20260509211521 73 173 0.0 0.0 0.00 0.00 0.00 55 1004.9
20260509210014 73 173 0.0 0.0 0.00 0.00 0.00 56 1005.0
20260509204506 73 173 0.0 0.0 0.00 0.00 0.00 56 1005.0
20260509203054 73 250 0.0 1.7 0.00 0.00 0.00 57 1004.8
20260509201544 72 239 0.0 0.0 0.00 0.00 0.00 59 1004.8
20260509200047 72 239 0.0 0.9 0.00 0.00 0.00 57 1005.3
20260509194530 72 281 0.0 4.3 0.00 0.00 0.00 59 1005.6
20260509193023 72 269 0.0 0.0 0.00 0.00 0.00 63 1005.8
20260509191512 71 198 0.0 0.0 0.00 0.00 0.00 62 1006.2
20260509190055 70 196 0.0 0.0 0.00 0.00 0.00 62 1006.1
20260509184629 70 246 0.0 0.9 0.00 0.00 0.00 63 1006.1
20260509183047 69 244 0.0 0.0 0.00 0.00 0.00 62 1006.4
20260509181545 68 244 0.0 3.5 0.00 0.00 0.00 61 1006.5
20260509180033 68 191 0.0 0.9 0.00 0.00 0.00 60 1007.1
20260509174523 69 188 0.0 0.0 0.00 0.00 0.00 60 1007.1
20260509173010 68 187 0.0 0.0 0.00 0.00 0.00 61 1007.1
20260509171503 69 265 0.0 0.9 0.00 0.00 0.00 60 1007.3
20260509170001 68 57 0.0 0.9 0.00 0.00 0.00 62 1007.4
20260509164545 67 119 0.0 0.9 0.00 0.00 0.00 62 1007.3
20260509163044 67 40 0.0 0.0 0.00 0.00 0.00 64 1007.3
20260509161526 67 40 0.0 0.9 0.00 0.00 0.00 63 1007.5
20260509160025 68 41 0.0 0.9 0.00 0.00 0.00 63 1007.5
20260509154508 68 72 0.0 0.9 0.00 0.00 0.00 62 1007.8
20260509153059 67 290 0.0 1.7 0.00 0.00 0.00 64 1007.8
20260509151554 65 96 0.0 0.9 0.00 0.00 0.00 63 1007.9
20260509150041 64 96 0.0 0.0 0.00 0.00 0.00 67 1008.0
20260509144544 63 97 0.0 0.0 0.00 0.00 0.00 70 1008.3
20260509143028 62 97 0.0 0.0 0.00 0.00 0.00 72 1008.5
20260509141533 61 97 0.0 0.0 0.00 0.00 0.00 72 1008.5
20260509140011 61 97 0.0 0.0 0.00 0.00 0.00 69 1008.5
20260509134508 60 97 0.0 0.0 0.00 0.00 0.00 70 1008.6
20260509133051 60 97 0.0 0.9 0.00 0.00 0.00 70 1008.5
20260509131545 60 97 0.0 0.0 0.00 0.00 0.00 70 1008.5
20260509130048 59 97 0.0 0.0 0.00 0.00 0.00 69 1008.7
20260509124519 59 76 0.0 0.0 0.00 0.00 0.00 69 1008.5
20260509123013 59 69 0.0 0.0 0.00 0.00 0.00 69 1008.4
20260509121557 58 49 0.0 0.9 0.00 0.00 0.00 69 1008.5
20260509121505 58 49 0.0 0.9 0.00 0.00 0.00 69 1008.5
20260509120055 58 52 0.0 1.7 0.00 0.00 0.00 68 1008.4
20260509114548 58 92 0.0 0.9 0.00 0.00 0.00 66 1008.5
20260509113043 58 91 0.0 0.9 0.00 0.00 0.00 65 1008.4
20260509111544 57 5 0.0 0.0 0.00 0.00 0.00 63 1008.2
20260509110026 57 5 0.0 0.0 0.00 0.00 0.00 62 1008.3
20260509104525 57 5 0.0 0.0 0.00 0.00 0.00 62 1008.2
20260509103102 58 5 0.0 0.0 0.00 0.00 0.00 61 1008.1
20260509103001 58 5 0.0 0.0 0.00 0.00 0.00 61 1008.1
20260509101555 58 5 0.0 0.0 0.00 0.00 0.00 60 1007.9
20260509100104 58 5 0.0 0.0 0.00 0.00 0.00 59 1007.8
20260509094549 58 5 0.0 0.0 0.00 0.00 0.00 59 1007.7
20260509093020 58 5 0.0 0.0 0.00 0.00 0.00 58 1007.9
20260509091520 58 315 0.0 0.0 0.00 0.00 0.00 59 1007.9
20260509090100 58 315 0.0 0.0 0.00 0.00 0.00 58 1008.0
20260509090002 58 315 0.0 0.0 0.00 0.00 0.00 58 1008.0
20260509084558 58 298 0.0 0.0 0.00 0.00 0.00 58 1008.2
20260509083047 58 298 0.0 0.0 0.00 0.00 0.00 58 1008.4
20260509081548 58 297 0.0 4.3 0.00 0.00 0.00 58 1008.5
20260509080046 58 140 0.0 3.5 0.00 0.00 0.00 58 1008.6
20260509074542 58 140 0.0 0.9 0.00 0.00 0.00 58 1008.8
20260509073027 58 141 0.0 0.0 0.00 0.00 0.00 58 1008.8
20260509071526 58 141 0.0 0.0 0.00 0.00 0.00 58 1008.7
20260509070024 58 146 0.0 1.7 0.00 0.00 0.00 57 1008.8
20260509064520 58 175 0.0 0.9 0.00 0.00 0.00 58 1008.8
20260509063101 58 174 0.0 0.0 0.00 0.00 0.00 58 1008.9
20260509061604 58 174 0.0 0.0 0.00 0.00 0.00 58 1009.1
20260509060046 58 244 0.0 0.0 0.00 0.00 0.00 58 1009.1
20260509054550 58 257 0.0 0.0 0.00 0.00 0.00 58 1009.1
20260509053051 58 257 0.0 0.9 0.00 0.00 0.00 58 1009.1
20260509051521 58 238 0.0 0.0 0.00 0.00 0.00 58 1009.2
20260509050100 58 238 0.0 0.0 0.00 0.00 0.00 56 1009.1
20260509050009 58 238 0.0 0.0 0.00 0.00 0.00 56 1009.1
20260509044556 59 239 0.0 0.0 0.00 0.00 0.00 55 1009.1
20260509043049 59 239 0.0 3.5 0.00 0.00 0.00 55 1009.2
20260509041537 59 171 0.0 0.0 0.00 0.00 0.00 56 1009.1
20260509040037 59 163 0.0 0.9 0.00 0.00 0.00 55 1009.1
20260509034535 59 165 0.0 0.0 0.00 0.00 0.00 56 1009.1
20260509033021 59 168 0.0 0.9 0.00 0.00 0.00 56 1009.2
20260509031513 60 169 0.0 0.9 0.00 0.00 0.00 55 1009.4
20260509030013 60 169 0.0 0.0 0.00 0.00 0.00 55 1009.5
20260509024507 60 169 0.0 0.0 0.00 0.00 0.00 54 1009.5
20260509023011 61 169 0.0 0.0 0.00 0.00 0.00 53 1009.6